Location: ???? ???? ?????
(31.2680°N, 31.7283°E)
Time: 02:58:00
(UTC+00:00)

In-Cosmos 22 Rocket - Pass Details

Date: 13 July 2020
Orbit: 791 x 887 km, 81.2° (Epoch: 11 August)

Event Time Altitude Azimuth Distance (km) Brightness Sun altitude
Exits shadow 19:23:56 39° 214° (SW) 1,167 4.7 -25.3°
Maximum altitude 19:25:46 63° 279° (W) 880 4.4 -25.6°
Drops below altitude 10° 19:31:03 10° 0° (N) 2,369 7.2 -26.3°
Sets 19:33:28 0° 4° (N) 3,310 8.0 -26.6°
